Location: Unspecified
(0.0000°N, 0.0000°E)
Time: 06:08:53
(UTC+00:00)

Explorer 7 - Pass Details

Date: 02 October 2020
Orbit: 484 x 678 km, 50.3° (Epoch: 28 October)

Event Time Altitude Azimuth Distance (km) Brightness Sun altitude
Rises 07:56:02 0° 337° (NNW) 2,996 10.3 31.6°
Reaches altitude 10° 07:58:34 10° 345° (NNW) 2,069 9.7 32.2°
Maximum altitude 08:03:00 38° 53° (NE) 989 9.2 33.4°
Drops below altitude 10° 08:07:15 10° 120° (ESE) 1,987 10.8 34.4°
Sets 08:09:37 0° 129° (SE) 2,862 11.2 35.0°
